DW1256 Weather Reports


Display with metric or nautical units.
time (UTC)temp
F
wind
direction
speed
MPH
gust
MPH
rain 1hr
in
rain 24hr
in
rain mn
in
humidity
%
barometer
mb
20260901025953 76 159 0.0 0.0 0.00 0.00 0.00 65 1013.9
20260901025447 77 159 0.0 0.0 0.00 0.00 0.00 65 1013.9
20260901024940 77 0 0.0 1.0 0.00 0.00 0.00 64 1013.9
20260901024433 78 159 0.0 1.0 0.00 0.00 0.00 63 1014.0
20260901023928 78 159 0.0 0.0 0.00 0.00 0.00 62 1014.0
20260901023422 78 159 0.0 0.0 0.00 0.00 0.00 62 1014.1
20260901022916 78 159 0.0 0.0 0.00 0.00 0.00 61 1014.1
20260901022409 79 159 0.0 0.0 0.00 0.00 0.00 61 1014.1
20260901021904 79 159 0.0 0.0 0.00 0.00 0.00 61 1014.1
20260901020852 79 159 0.0 0.0 0.00 0.00 0.00 60 1014.0
20260901020346 80 159 0.0 0.0 0.00 0.00 0.00 60 1013.9
20260901015840 80 159 0.0 0.0 0.00 0.00 0.00 59 1014.0
20260901015335 80 159 0.0 0.0 0.00 0.00 0.00 59 1014.0
20260901014830 80 159 0.0 0.0 0.00 0.00 0.00 58 1014.0
20260901014323 80 159 0.0 0.0 0.00 0.00 0.00 58 1013.9
20260901013815 80 159 0.0 0.0 0.00 0.00 0.00 58 1013.8
20260901013310 80 159 0.0 0.0 0.00 0.00 0.00 58 1013.7
20260901012258 81 159 1.0 4.0 0.00 0.00 0.00 58 1013.7
20260901011752 81 159 1.0 4.0 0.00 0.00 0.00 58 1013.7
20260901011246 81 163 1.0 4.0 0.00 0.00 0.00 57 1013.6
20260901010744 82 164 1.0 4.0 0.00 0.00 0.00 57 1013.6
20260901010234 82 159 1.0 3.0 0.00 0.00 0.00 56 1013.5
20260901005222 83 195 1.0 3.0 0.00 0.00 0.00 55 1013.4
20260901004716 83 195 1.0 5.0 0.00 0.00 0.00 55 1013.3
20260901004210 83 175 1.0 5.0 0.00 0.00 0.00 55 1013.2
20260901003703 83 146 2.0 5.0 0.00 0.00 0.00 54 1013.1
20260901003158 84 170 2.0 5.0 0.00 0.00 0.00 53 1013.1
20260901002652 84 186 1.0 5.0 0.00 0.00 0.00 53 1012.9
20260901002148 85 160 1.0 6.0 0.00 0.00 0.00 53 1012.9
20260901001640 85 178 2.0 6.0 0.00 0.00 0.00 52 1012.8
20260901001134 85 162 2.0 5.0 0.00 0.00 0.00 52 1012.9
20260901000627 86 175 2.0 5.0 0.00 0.00 0.00 51 1012.8
20260901000123 86 167 2.0 6.0 0.00 0.00 0.00 51 1012.8
20260831235110 87 196 1.0 5.0 0.00 0.00 0.00 50 1012.8
20260831234605 87 186 2.0 5.0 0.00 0.00 0.00 50 1012.8
20260831234058 87 186 2.0 6.0 0.00 0.00 0.00 50 1012.8
20260831233551 87 198 2.0 6.0 0.00 0.00 0.00 49 1012.8
20260831233048 87 179 2.0 10.0 0.00 0.00 0.00 50 1012.8
20260831232037 87 158 3.0 9.0 0.00 0.00 0.00 49 1012.7
20260831231528 87 155 3.0 9.0 0.00 0.00 0.00 49 1012.6
20260831230516 87 153 3.0 8.0 0.00 0.00 0.00 49 1012.5
20260831230011 88 175 3.0 8.0 0.00 0.00 0.00 49 1012.4
20260831224958 88 142 4.0 12.0 0.00 0.00 0.00 49 1012.2
20260831224453 88 143 4.0 11.0 0.00 0.00 0.00 48 1012.2
20260831223947 88 180 5.0 12.0 0.00 0.00 0.00 48 1012.2
20260831223440 88 180 6.0 12.0 0.00 0.00 0.00 48 1012.2
20260831222933 89 201 5.0 12.0 0.00 0.00 0.00 49 1012.3
20260831222429 89 171 5.0 12.0 0.00 0.00 0.00 48 1012.4
20260831221416 89 169 4.0 12.0 0.00 0.00 0.00 47 1012.5
20260831220405 89 173 4.0 10.0 0.00 0.00 0.00 47 1012.6
20260831215352 90 221 4.0 14.0 0.00 0.00 0.00 47 1012.8
20260831214847 90 165 4.0 14.0 0.00 0.00 0.00 46 1012.8
20260831214340 90 178 4.0 10.0 0.00 0.00 0.00 45 1012.8
20260831213834 91 203 4.0 12.0 0.00 0.00 0.00 47 1012.9
20260831213330 90 190 4.0 12.0 0.00 0.00 0.00 47 1012.8
20260831212822 90 180 5.0 16.0 0.00 0.00 0.00 46 1012.9
20260831212317 90 182 5.0 16.0 0.00 0.00 0.00 44 1012.9
20260831211811 91 163 4.0 14.0 0.00 0.00 0.00 47 1012.9
20260831211304 91 189 5.0 14.0 0.00 0.00 0.00 46 1012.9
20260831210758 90 141 6.0 19.0 0.00 0.00 0.00 46 1012.9
20260831210253 90 186 6.0 19.0 0.00 0.00 0.00 44 1012.9
20260831205746 91 165 4.0 11.0 0.00 0.00 0.00 44 1012.9
20260831205240 91 155 5.0 14.0 0.00 0.00 0.00 46 1012.9
20260831204734 90 331 6.0 14.0 0.00 0.00 0.00 45 1012.9
20260831204227 90 114 6.0 12.0 0.00 0.00 0.00 45 1013.0
20260831203721 90 163 5.0 13.0 0.00 0.00 0.00 45 1013.1
20260831202205 91 155 3.0 13.0 0.00 0.00 0.00 46 1013.3
20260831201658 91 198 5.0 14.0 0.00 0.00 0.00 46 1013.4
20260831200646 91 218 3.0 12.0 0.00 0.00 0.00 44 1013.5
20260831200140 91 177 3.0 13.0 0.00 0.00 0.00 45 1013.5
20260831195128 91 144 5.0 17.0 0.00 0.00 0.00 46 1013.5
20260831194622 90 130 5.0 17.0 0.00 0.00 0.00 46 1013.5
20260831194116 90 211 5.0 14.0 0.00 0.00 0.00 46 1013.7
20260831193610 90 128 5.0 14.0 0.00 0.00 0.00 47 1013.7
20260831193105 91 181 5.0 15.0 0.00 0.00 0.00 47 1013.8
20260831192558 90 198 4.0 15.0 0.00 0.00 0.00 47 1013.8
20260831192052 91 160 4.0 12.0 0.00 0.00 0.00 47 1013.8
20260831191546 90 149 5.0 12.0 0.00 0.00 0.00 47 1013.9
20260831191040 90 258 5.0 11.0 0.00 0.00 0.00 47 1014.0
20260831190535 90 173 5.0 11.0 0.00 0.00 0.00 47 1014.1
20260831185523 90 176 5.0 18.0 0.00 0.00 0.00 45 1014.1
20260831185017 90 150 4.0 18.0 0.00 0.00 0.00 46 1014.1
20260831184005 90 204 5.0 10.0 0.00 0.00 0.00 47 1014.3
20260831183458 90 146 5.0 11.0 0.00 0.00 0.00 47 1014.5
20260831182953 90 191 4.0 11.0 0.00 0.00 0.00 46 1014.6
20260831182445 91 172 4.0 12.0 0.00 0.00 0.00 45 1014.6
20260831181940 91 201 3.0 12.0 0.00 0.00 0.00 46 1014.7
20260831180928 91 188 3.0 10.0 0.00 0.00 0.00 45 1014.7
20260831175916 90 173 3.0 11.0 0.00 0.00 0.00 43 1014.9
20260831175411 91 161 2.0 8.0 0.00 0.00 0.00 44 1014.9
20260831174907 92 148 2.0 8.0 0.00 0.00 0.00 44 1014.9
20260831174358 91 144 3.0 8.0 0.00 0.00 0.00 43 1014.9
20260831173346 90 168 3.0 9.0 0.00 0.00 0.00 44 1014.9
20260831172841 90 165 2.0 7.0 0.00 0.00 0.00 44 1015.0
20260831172340 90 227 2.0 7.0 0.00 0.00 0.00 43 1014.9
20260831171338 89 214 3.0 10.0 0.00 0.00 0.00 44 1015.0
20260831170840 89 205 2.0 10.0 0.00 0.00 0.00 44 1015.1
20260831165334 87 166 2.0 5.0 0.00 0.00 0.00 50 1015.4
20260831164836 87 142 1.0 5.0 0.00 0.00 0.00 49 1015.5
20260831163835 86 236 2.0 5.0 0.00 0.00 0.00 51 1015.6
20260831163336 86 151 2.0 6.0 0.00 0.00 0.00 49 1015.6
20260831162836 85 273 2.0 6.0 0.00 0.00 0.00 50 1015.7
20260831162335 85 333 2.0 6.0 0.00 0.00 0.00 52 1015.7
20260831160837 83 163 3.0 8.0 0.00 0.00 0.00 52 1015.6
20260831160339 83 166 3.0 7.0 0.00 0.00 0.00 53 1015.6
20260831155830 83 267 2.0 5.0 0.00 0.00 0.00 54 1015.6
20260831155325 83 144 2.0 6.0 0.00 0.00 0.00 53 1015.7
20260831154828 83 194 2.0 6.0 0.00 0.00 0.00 53 1015.6
20260831154326 83 182 1.0 6.0 0.00 0.00 0.00 52 1015.6
20260831153323 81 230 3.0 6.0 0.00 0.00 0.00 53 1015.5
20260831152823 82 245 2.0 7.0 0.00 0.00 0.00 53 1015.5
20260831152322 82 182 1.0 7.0 0.00 0.00 0.00 52 1015.5
20260831151823 81 167 1.0 6.0 0.00 0.00 0.00 54 1015.5
20260831151324 80 184 1.0 6.0 0.00 0.00 0.00 55 1015.5
20260831150325 80 225 1.0 5.0 0.00 0.00 0.00 55 1015.4
20260831145822 80 207 2.0 7.0 0.00 0.00 0.00 55 1015.5
20260831145321 79 189 3.0 7.0 0.00 0.00 0.00 56 1015.5
20260831144821 79 183 2.0 5.0 0.00 0.00 0.00 56 1015.4
20260831143822 78 195 2.0 7.0 0.00 0.00 0.00 57 1015.5
20260831143322 77 155 2.0 7.0 0.00 0.00 0.00 59 1015.4
20260831140814 76 0 2.0 6.0 0.00 0.00 0.00 62 1015.2
20260831140313 75 0 2.0 6.0 0.00 0.00 0.00 62 1015.2
20260831135812 75 0 2.0 6.0 0.00 0.00 0.00 62 1015.3
20260831135309 74 0 2.0 5.0 0.00 0.00 0.00 63 1015.3
20260831134812 74 0 2.0 6.0 0.00 0.00 0.00 63 1015.3
20260831134310 74 0 3.0 8.0 0.00 0.00 0.00 63 1015.2
20260831133307 73 0 3.0 9.0 0.00 0.00 0.00 65 1015.3
20260831132806 73 0 2.0 9.0 0.00 0.00 0.00 66 1015.2
20260831131805 72 0 3.0 6.0 0.00 0.00 0.00 67 1015.1
20260831131303 71 176 2.0 6.0 0.00 0.00 0.00 67 1015.1
20260831130805 71 169 2.0 6.0 0.00 0.00 0.00 67 1015.1
20260831125804 71 158 3.0 6.0 0.00 0.00 0.00 67 1015.1
20260831125300 70 182 2.0 6.0 0.00 0.00 0.00 67 1015.1
20260831124755 70 174 2.0 6.0 0.00 0.00 0.00 67 1015.1
20260831124254 70 183 2.0 6.0 0.00 0.00 0.00 67 1015.1
20260831123754 70 150 2.0 6.0 0.00 0.00 0.00 67 1015.0
20260831123257 70 188 1.0 6.0 0.00 0.00 0.00 67 1015.0
20260831122754 70 172 1.0 6.0 0.00 0.00 0.00 67 1014.9
20260831121255 70 203 2.0 7.0 0.00 0.00 0.00 67 1014.7
20260831120752 70 188 2.0 5.0 0.00 0.00 0.00 66 1014.6
20260831120254 70 168 2.0 8.0 0.00 0.00 0.00 66 1014.5
20260831115753 70 169 2.0 8.0 0.00 0.00 0.00 66 1014.5
20260831115252 70 176 2.0 5.0 0.00 0.00 0.00 66 1014.4
20260831114751 70 162 1.0 5.0 0.00 0.00 0.00 66 1014.3
20260831114254 70 175 0.0 5.0 0.00 0.00 0.00 66 1014.3
20260831113752 70 155 1.0 5.0 0.00 0.00 0.00 66 1014.3
20260831113251 70 165 1.0 7.0 0.00 0.00 0.00 66 1014.3
20260831112750 70 155 3.0 10.0 0.00 0.00 0.00 66 1014.3
20260831112250 70 192 3.0 10.0 0.00 0.00 0.00 66 1014.3
20260831111750 70 155 3.0 7.0 0.00 0.00 0.00 65 1014.3
20260831111252 70 140 3.0 8.0 0.00 0.00 0.00 65 1014.2
20260831110747 70 156 3.0 9.0 0.00 0.00 0.00 65 1014.1
20260831110247 70 160 3.0 8.0 0.00 0.00 0.00 65 1014.1
20260831105748 70 204 3.0 6.0 0.00 0.00 0.00 65 1014.1
20260831105246 70 166 3.0 8.0 0.00 0.00 0.00 66 1014.0
20260831104745 70 176 3.0 8.0 0.00 0.00 0.00 66 1014.0
20260831104246 70 182 3.0 7.0 0.00 0.00 0.00 66 1014.0
20260831103746 70 190 2.0 7.0 0.00 0.00 0.00 66 1014.1
20260831103246 70 190 2.0 6.0 0.00 0.00 0.00 66 1014.1
20260831102744 70 151 2.0 6.0 0.00 0.00 0.00 66 1014.1
20260831102243 70 144 3.0 9.0 0.00 0.00 0.00 66 1014.1
20260831101740 70 161 3.0 9.0 0.00 0.00 0.00 66 1014.2
20260831101240 70 179 2.0 8.0 0.00 0.00 0.00 66 1014.1
20260831100740 71 143 3.0 8.0 0.00 0.00 0.00 66 1014.1
20260831100233 71 138 3.0 7.0 0.00 0.00 0.00 66 1014.0
20260831094732 71 176 2.0 6.0 0.00 0.00 0.00 66 1014.2
20260831094230 71 146 2.0 6.0 0.00 0.00 0.00 66 1014.3
20260831093732 71 149 3.0 8.0 0.00 0.00 0.00 66 1014.3
20260831093230 71 146 2.0 8.0 0.00 0.00 0.00 66 1014.3
20260831092729 71 186 3.0 7.0 0.00 0.00 0.00 66 1014.4
20260831092230 71 175 2.0 7.0 0.00 0.00 0.00 66 1014.4
20260831091731 71 182 2.0 7.0 0.00 0.00 0.00 66 1014.5
20260831091228 71 186 2.0 5.0 0.00 0.00 0.00 66 1014.4
20260831090728 71 166 3.0 6.0 0.00 0.00 0.00 66 1014.4
20260831090231 71 180 3.0 7.0 0.00 0.00 0.00 66 1014.3
20260831085727 71 159 3.0 7.0 0.00 0.00 0.00 66 1014.3
20260831085228 71 173 2.0 5.0 0.00 0.00 0.00 66 1014.4
20260831084729 72 165 2.0 5.0 0.00 0.00 0.00 66 1014.4
20260831084226 72 148 2.0 5.0 0.00 0.00 0.00 66 1014.4
20260831083231 72 0 1.0 3.0 0.00 0.00 0.00 66 1014.5
20260831081225 72 0 1.0 5.0 0.00 0.00 0.00 65 1014.2
20260831080728 73 0 0.0 3.0 0.00 0.00 0.00 64 1014.2
20260831080227 73 0 0.0 4.0 0.00 0.00 0.00 65 1014.2
20260831075723 73 0 1.0 5.0 0.00 0.00 0.00 64 1014.2
20260831075224 73 0 2.0 6.0 0.00 0.00 0.00 65 1014.0
20260831074725 73 0 2.0 6.0 0.00 0.00 0.00 65 1014.0
20260831073722 73 0 0.0 4.0 0.00 0.00 0.00 65 1014.1
20260831073225 73 0 1.0 4.0 0.00 0.00 0.00 65 1014.2
20260831071720 73 0 2.0 5.0 0.00 0.00 0.00 66 1014.2
20260831071220 73 0 1.0 5.0 0.00 0.00 0.00 66 1014.3
20260831070219 73 0 2.0 5.0 0.00 0.00 0.00 66 1014.3
20260831065719 73 0 2.0 5.0 0.00 0.00 0.00 66 1014.4
20260831065219 73 0 1.0 4.0 0.00 0.00 0.00 66 1014.4
20260831064720 73 0 0.0 0.0 0.00 0.00 0.00 66 1014.5
20260831063715 73 0 2.0 7.0 0.00 0.00 0.00 66 1014.4
20260831063215 73 0 1.0 7.0 0.00 0.00 0.00 66 1014.4
20260831062714 73 0 1.0 4.0 0.00 0.00 0.00 67 1014.4
20260831061715 73 0 0.0 0.0 0.00 0.00 0.00 67 1014.5
20260831061216 73 0 1.0 3.0 0.00 0.00 0.00 67 1014.5
20260831060715 73 0 1.0 3.0 0.00 0.00 0.00 67 1014.6
20260831060216 73 0 1.0 3.0 0.00 0.00 0.00 67 1014.6
20260831055712 73 0 2.0 5.0 0.00 0.00 0.00 67 1014.6
20260831055211 73 0 2.0 5.0 0.00 0.00 0.00 67 1014.5
20260831054712 73 0 1.0 4.0 0.00 0.00 0.00 66 1014.5
20260831054211 73 0 1.0 5.0 0.00 0.00 0.00 67 1014.7
20260831053712 73 0 0.0 5.0 0.00 0.00 0.00 67 1014.7
20260831053212 73 0 0.0 0.0 0.00 0.00 0.00 67 1014.8
20260831052711 73 0 1.0 5.0 0.00 0.00 0.00 67 1014.7
20260831051712 73 0 0.0 5.0 0.00 0.00 0.00 67 1014.6
20260831051207 73 0 0.0 3.0 0.00 0.00 0.00 67 1014.7
20260831050707 73 0 0.0 3.0 0.00 0.00 0.00 67 1014.7
20260831045707 73 0 0.0 0.0 0.00 0.00 0.00 68 1014.7
20260831045205 73 0 0.0 0.0 0.00 0.00 0.00 68 1014.7
20260831044707 73 0 0.0 0.0 0.00 0.00 0.00 68 1014.8
20260831043706 73 0 0.0 0.0 0.00 0.00 0.00 68 1014.7
20260831043208 73 0 0.0 0.0 0.00 0.00 0.00 68 1014.6
20260831042202 74 0 0.0 0.0 0.00 0.00 0.00 68 1014.6
20260831041705 74 0 0.0 0.0 0.00 0.00 0.00 68 1014.7
20260831040702 74 0 0.0 0.0 0.00 0.00 0.00 68 1014.8
20260831040203 74 0 0.0 0.0 0.00 0.00 0.00 68 1014.7
20260831035701 74 0 0.0 0.0 0.00 0.00 0.00 68 1014.7
20260831035201 74 0 0.0 0.0 0.00 0.00 0.00 68 1014.7
20260831034702 74 0 0.0 1.0 0.00 0.00 0.00 68 1014.7
20260831034202 74 0 1.0 4.0 0.00 0.00 0.00 68 1014.6
20260831033659 74 0 2.0 5.0 0.00 0.00 0.00 68 1014.7
20260831033159 74 0 2.0 5.0 0.00 0.00 0.00 68 1014.5
20260831032659 74 0 1.0 4.0 0.00 0.00 0.00 68 1014.6
20260831032155 74 140 0.0 0.0 0.00 0.00 0.00 68 1014.9
20260831030654 75 0 0.0 0.0 0.00 0.00 0.00 68 1015.1